Flag for Germany Weather past 2 weeks in Senftenberg, Brandenburg, Germany

Now
91 °F

Partly sunny.


Feels Like: 90 °F
Forecast: 62 / 91 °F
Wind: 2 mph from South

Location: Cottbus

Current Time: Aug 31, 2015 at 1:04:55 PM

Latest Report: Aug 31, 2015 at 12:00 PM


Visibility: 19 mi

Pressure: 29.90 "Hg

Humidity: 33%

Dew point: 58 °F

Location of SenftenbergLocation

Historic Weather in Senftenberg — Graph

°F

Senftenberg temperature yesterday

Maximum temperature yesterday: 91 °F (at 5:00 PM)
Minimum temperature yesterday: 57 °F (at 5:00 AM)
Average temperature yesterday: 75 °F

Past Weeks' High & Low Weather Summary

 TemperatureHumidityPressure
High91 °F (Aug 31, 12:00 PM)99% (Aug 29, 1:00 AM)30.31 "Hg (Aug 29, 1:00 AM)
Low47 °F (Aug 22, 6:00 AM)22% (Aug 22, 3:00 PM)29.73 "Hg (Aug 24, 11:00 PM)
Average68 °F65%30.02 "Hg
* Reported Aug 16 12:00 Noon — Aug 31 12:00 Noon, Senftenberg, Weather by CustomWeather, © 2015

Note: Actual official high and low records may vary slightly from our data, if they occured in-between our weather recording intervals... More about our weather records

Advertising

Senftenberg weather history for previous 24 hours

 ConditionsComfort  
Time TempWeatherWind HumidityBarometerVisibility
12:00 PM
Mon, Aug 31
91 °FPartly sunny.2 mph33%29.90 "Hg19 mi
11:00 AM87 °FOvercast.1 mph41%29.91 "Hg15 mi
10:00 AM84 °FOvercast.1 mph48%29.93 "Hg14 mi
9:00 AM77 °FOvercast.2 mph63%29.94 "Hg12 mi
8:00 AM71 °FOvercast.1 mph75%29.95 "Hg12 mi
7:00 AM64 °FOvercast.1 mph92%29.96 "Hg7 mi
5:00 AM66 °FOvercast.1 mph88%29.96 "Hg13 mi
4:00 AM66 °FOvercast.1 mph90%29.98 "Hg12 mi
3:00 AM66 °FClear.1 mph87%29.98 "Hg13 mi
2:00 AM70 °FOvercast.1 mph79%29.99 "Hg17 mi
1:00 AM72 °FOvercast.2 mph74%30.00 "Hg19 mi
11:00 PM
Sun, Aug 30
74 °FPassing clouds.2 mph70%30.01 "Hg22 mi
10:00 PM79 °FClear.2 mph59%30.01 "Hg25 mi
9:00 PM78 °FClear.2 mph61%30.02 "Hg25 mi
8:00 PM85 °FPassing clouds.3 mph48%30.01 "Hg31 mi
7:00 PM89 °FSunny.3 mph41%30.01 "Hg31 mi
6:00 PM91 °FSunny.1 mph37%30.01 "Hg31 mi
5:00 PM91 °FPassing clouds.2 mph37%30.01 "Hg34 mi
4:00 PM90 °FOvercast.3 mph38%30.02 "Hg25 mi
3:00 PM88 °FScattered clouds.3 mph40%30.05 "Hg25 mi
2:00 PM86 °FSunny.2 mph42%30.08 "Hg28 mi
1:00 PM83 °FPassing clouds.3 mph46%30.10 "Hg25 mi
Weather by CustomWeather, © 2015

See weather overviewHow to use our weather pages